Location: Asheville, NC
(35.6000°N, 82.5500°W)
Time: 14:12:22
(UTC-04:00)

Hubble Space Telescope - Pass Details

Date: 06 January 2018
Orbit: 537 x 541 km, 28.5° (Epoch: 17 July)

Event Time Altitude Azimuth Distance (km) Brightness Sun altitude
Exits shadow 04:49:41 14° 123° (ESE) 1,551 3.7 -34.0°
Drops below altitude 10° 04:50:28 10° 115° (ESE) 1,783 4.1 -33.8°
Sets 04:53:04 0° 101° (E) 2,674 5.4 -33.3°
